Dewpoint
61 59 50 47 49 43 24 22 8 9 18 11 16 13 8 13 18 17 16 18 14 17 24 55 31 40 41 46 48 49 51 52 53 48 47 51 65 62 66 66 68 69 70 72 73 73 73 74 73 73 73 72 72 73 73 72 73 73 73 73 73 72 73 73 73 73 73 73 73 73 72 72 72 72 72 72 72 71 71 71 71 72 71 70 71 71 70 70 70 70 71 71 71 71 72 72 72
57 53 40 45 40 27 25 12 16 11 16 15 13 15 11 14 20 17 14 14 14 16 46 57 55 50 56 57 56 53 49 57 54 53 60 65 64 66 67 68 69 69 71 72 72 73 73 73 73 73 72 72 72 72 73 73 73 73 73 73 72 73 73 73 73 73 73 73 73 73 72 72 72 72 72 72 71 72 72 71 71 71 71 71 71 70 70 71 70 70 70 70 70 71 71 72 72
53 44 31 42 38 31 26 16 12 11 7 6 10 14 17 11 11 12 16 15 14 15 17 39 52 52 54 53 47 47 47 61 62 63 63 63 60 64 68 68 69 70 71 72 72 72 73 73 73 73 72 72 72 72 72 73 72 72 73 73 73 73 73 73 73 73 73 73 73 72 72 72 72 72 72 71 72 71 72 71 71 71 71 71 71 71 70 70 70 70 69 69 69 70 70 71 71
46 48 35 40 38 21 20 16 17 9 2 -1 3 7 13 9 9 10 12 14 14 14 28 39 34 53 54 50 48 51 52 60 62 63 62 62 61 66 68 69 70 70 71 72 72 72 73 73 73 73 72 72 72 72 72 72 72 73 73 73 73 73 73 73 73 73 73 72 72 72 72 72 72 72 72 71 71 71 71 71 71 70 71 70 70 70 70 70 70 70 69 69 68 69 69 70 70
40 46 34 31 21 24 20 18 15 8 -0 4 -1 3 16 13 10 11 12 13 14 14 29 39 52 56 55 53 59 49 50 60 62 64 63 65 67 68 69 70 70 71 71 71 72 72 72 73 73 73 72 72 72 72 72 72 72 73 73 73 73 73 73 73 73 73 73 72 72 72 72 71 72 71 71 71 71 71 71 71 71 70 71 71 70 70 70 70 70 70 69 69 68 69 69 70 70
33 33 37 29 25 26 14 15 15 10 1 2 -1 7 12 14 13 12 12 13 13 13 16 44 40 50 56 59 60 59 61 55 61 63 64 64 67 68 69 70 70 70 71 71 72 72 72 73 73 73 72 72 71 72 72 72 72 72 72 73 73 73 73 73 73 73 72 72 72 72 71 71 71 71 71 71 71 71 70 70 70 71 70 70 70 70 71 71 70 70 70 69 69 70 70 70 70
22 18 22 28 28 21 11 9 2 9 8 6 2 7 11 13 13 15 13 10 11 12 18 32 56 50 49 58 61 64 63 62 62 63 64 66 68 68 69 69 70 70 71 71 72 71 72 73 73 73 72 72 72 72 72 72 72 72 73 73 73 73 73 73 73 73 72 72 72 71 71 71 72 71 71 71 70 70 71 71 71 70 70 70 70 71 71 71 71 71 71 70 70 70 70 70 70
44 17 22 22 22 21 17 15 8 7 6 10 10 8 10 13 14 11 10 11 8 8 14 52 56 43 46 62 56 62 63 63 64 66 67 67 68 68 69 69 69 70 71 71 71 71 73 73 73 72 72 72 71 72 72 72 72 72 73 73 73 73 73 73 73 73 72 72 72 71 71 71 71 71 71 71 70 70 70 70 70 70 70 70 71 71 70 71 70 70 70 70 70 70 70 70 70
30 25 31 22 20 22 17 14 11 12 10 13 12 21 41 26 18 18 15 12 11 13 10 54 53 43 43 59 59 62 63 65 66 67 67 67 68 68 68 68 69 70 70 71 71 72 72 73 73 72 72 71 72 72 72 72 72 72 73 73 73 73 73 73 73 72 72 72 72 72 71 71 71 71 71 71 70 70 69 70 71 71 70 70 70 70 70 70 70 70 70 70 70 70 70 70 70
26 20 16 21 21 13 13 12 13 11 12 13 12 13 12 12 13 17 13 9 9 11 10 31 52 42 55 58 59 61 62 65 66 66 67 67 67 68 68 68 69 70 70 70 71 72 72 73 73 72 72 72 72 72 72 72 72 73 73 73 73 73 73 73 73 73 72 72 72 72 72 72 71 71 71 70 70 70 69 71 71 71 70 70 70 70 70 70 70 70 70 71 71 70 70 70 70
20 26 25 17 19 11 8 5 11 13 13 11 12 10 13 13 14 13 12 10 11 9 9 53 35 55 60 59 60 63 64 65 65 65 66 67 67 67 67 68 69 70 70 70 71 71 72 72 73 72 72 72 72 72 72 72 73 73 73 73 73 73 73 73 72 72 72 72 72 72 72 71 71 71 70 70 69 69 68 70 70 70 70 70 70 70 70 70 70 70 70 70 70 70 70 70 70
22 23 21 9 10 8 6 7 6 11 11 11 12 12 15 12 9 9 8 7 8 7 4 39 27 61 58 58 58 61 63 63 64 66 66 66 66 67 68 69 69 70 70 70 71 71 71 71 71 72 72 72 72 72 72 73 73 73 73 73 73 73 73 73 73 72 72 72 72 72 72 71 71 71 70 70 69 68 68 68 69 70 70 70 70 70 69 70 70 70 70 70 70 70 70 70 70
16 23 18 13 11 10 14 11 9 22 21 15 10 12 11 9 7 7 7 7 6 5 4 36 39 57 51 59 61 62 62 62 65 65 65 65 66 67 68 68 69 70 70 71 70 70 71 71 71 71 72 72 72 72 73 73 73 73 73 73 73 73 73 72 72 72 72 72 71 71 71 71 70 70 69 69 68 68 68 68 67 69 69 69 69 69 70 70 70 70 70 70 70 70 70 70 70
23 24 17 8 16 13 9 12 12 9 10 12 13 13 12 10 9 8 8 8 7 6 6 35 59 56 55 60 59 59 61 63 64 65 65 66 67 67 68 68 69 69 70 70 70 70 70 70 71 71 71 71 71 72 73 73 73 73 73 73 73 73 72 72 72 72 71 71 71 70 69 68 69 68 68 68 68 68 68 67 68 68 69 69 69 69 69 69 69 70 70 70 70 70 70 70 70
19 26 22 20 17 12 12 5 8 9 4 9 13 14 14 23 13 10 7 7 7 7 50 54 58 52 54 53 54 60 61 63 64 64 65 66 66 67 67 68 69 69 69 69 70 69 70 70 70 71 71 71 71 71 72 73 73 73 73 73 73 72 72 72 72 71 70 70 69 69 68 68 68 67 67 67 68 68 67 68 68 68 69 69 69 68 68 69 69 69 69 70 70 69 70 70 70
23 24 24 21 16 12 11 10 11 9 6 9 11 10 8 8 11 11 8 8 7 54 50 41 60 47 55 52 45 59 62 63 64 65 65 65 66 67 67 68 68 69 69 69 69 69 69 70 70 71 71 71 71 71 72 72 73 73 73 73 73 72 72 71 71 70 70 70 70 69 69 68 67 67 67 66 67 68 68 69 68 68 68 69 68 68 68 68 69 69 68 69 69 69 70 70 68
27 25 23 22 18 14 13 11 9 6 9 8 10 8 7 8 10 8 29 12 26 29 61 63 61 65 61 59 62 62 63 64 65 65 65 65 65 66 67 67 67 68 68 68 68 68 69 69 70 70 71 71 71 72 72 72 72 73 73 72 72 72 71 71 71 71 70 70 69 69 68 67 67 67 67 66 67 69 68 68 68 68 69 69 68 68 68 68 68 68 69 69 69 69 70 69 68
24 22 21 20 19 17 14 10 9 9 8 8 9 10 8 8 10 11 16 30 52 59 61 63 65 65 65 64 63 63 64 64 64 63 63 64 64 64 64 65 66 66 67 67 68 68 69 70 70 70 70 71 71 72 71 71 72 72 72 72 71 71 71 71 70 70 70 69 69 68 67 68 65 65 66 68 69 68 67 68 68 68 68 69 68 68 68 68 68 68 68 69 69 70 68 65 64
22 23 20 12 20 19 13 13 11 10 9 11 13 15 11 11 12 12 11 10 35 55 60 63 63 64 63 63 63 63 63 63 63 62 62 62 63 63 63 64 64 65 66 67 68 68 69 69 70 70 70 71 71 71 71 71 71 71 71 71 71 71 71 71 70 70 68 67 67 67 68 66 65 66 67 68 68 68 68 67 68 68 68 68 69 69 68 69 69 69 69 69 68 66 63 62 62
22 21 15 15 21 22 18 15 15 12 14 14 14 14 14 13 14 15 13 10 17 50 57 61 62 62 62 62 63 63 63 62 62 62 62 61 62 62 63 63 64 64 65 66 67 68 69 69 70 70 70 71 71 71 71 71 71 71 71 71 71 70 70 70 69 68 67 66 66 67 66 66 66 66 68 68 67 67 66 67 68 68 68 68 68 68 68 68 68 67 67 66 64 63 61 60 61
22 22 17 15 21 21 22 22 19 17 16 16 16 16 14 15 15 14 12 9 9 34 57 60 61 63 63 62 62 62 62 62 61 61 61 61 61 62 62 63 63 64 65 66 67 68 68 69 70 70 70 71 71 71 71 71 71 71 71 71 70 70 70 69 68 68 67 66 67 67 66 67 66 66 66 66 65 65 64 65 66 66 64 64 68 64 64 64 64 63 62 64 61 61 59 59 60
25 18 21 22 22 20 21 21 20 18 22 17 16 16 16 16 16 13 11 11 9 11 23 60 63 64 63 62 62 62 62 61 61 61 61 61 61 61 62 63 64 64 65 66 66 68 68 69 69 70 70 70 71 70 71 71 71 71 70 70 70 70 70 69 69 68 67 67 67 67 68 67 66 66 67 66 65 64 64 64 64 63 63 65 67 66 65 64 64 63 62 62 62 60 59 59 59
18 22 21 25 23 21 22 21 22 21 21 20 19 19 16 14 14 14 12 11 12 16 32 60 64 64 64 63 62 62 62 61 61 60 60 60 60 61 61 62 63 63 64 65 66 67 67 69 69 70 70 70 71 70 71 70 70 71 70 70 70 70 70 69 69 68 68 67 67 68 67 66 66 67 67 67 65 64 65 65 65 64 64 64 66 65 65 64 64 63 63 62 61 60 59 59 59
21 18 20 23 25 25 26 24 23 19 18 17 18 18 14 14 13 14 14 13 12 13 22 43 64 65 64 63 63 62 62 61 61 61 61 60 60 60 61 62 63 63 64 65 66 67 67 68 68 70 69 70 70 70 70 70 70 70 70 70 70 70 69 69 68 68 68 68 68 68 68 66 66 66 67 66 65 65 65 65 65 65 65 64 65 65 64 64 63 63 63 62 62 61 59 59 59
20 20 20 18 19 22 23 20 16 15 14 16 17 14 13 15 14 15 14 14 15 18 58 63 65 65 64 63 63 62 62 62 62 62 61 60 60 61 61 62 63 63 63 64 66 66 66 68 68 69 68 70 70 70 70 70 70 70 70 69 69 70 69 69 69 69 68 68 67 68 68 66 66 66 66 66 65 65 65 65 65 66 65 65 66 66 65 65 64 63 63 63 63 62 61 61 60
20 20 19 19 18 16 13 13 11 11 11 13 13 11 13 14 16 12 12 13 22 58 64 64 65 64 64 63 63 63 62 62 62 62 61 60 61 61 61 62 63 63 63 64 66 65 66 67 67 69 67 69 70 70 70 70 70 70 69 69 69 69 69 69 69 69 68 68 67 67 69 68 67 66 65 65 65 65 64 65 66 65 65 65 66 66 66 65 65 63 63 64 63 62 63 62 65
20 18 18 16 16 15 15 14 14 11 11 12 10 9 9 12 12 9 14 20 62 63 64 64 64 64 64 63 64 63 63 62 62 62 62 61 61 60 61 62 62 62 63 63 65 65 66 67 66 68 67 69 70 69 69 70 70 69 69 69 69 69 69 69 69 69 68 68 67 67 68 69 67 66 66 65 65 64 64 64 65 65 65 65 65 66 65 65 65 64 64 65 65 64 65 64 65
20 16 16 15 16 15 14 14 13 12 12 10 9 9 9 9 11 9 9 37 63 63 64 65 64 64 64 64 64 64 63 63 63 63 61 60 60 60 61 61 62 62 63 63 65 65 66 67 66 68 67 69 70 69 69 69 69 69 69 69 69 69 69 69 69 69 69 68 67 67 67 68 68 66 66 66 66 65 65 65 65 65 65 65 66 66 65 65 65 64 65 66 66 65 65 65 65
21 20 19 18 15 12 12 13 13 11 11 11 10 9 8 9 9 11 10 51 62 62 64 64 64 64 64 64 64 64 63 64 64 63 63 62 62 61 61 62 62 62 63 64 64 65 66 66 66 67 68 69 69 69 68 69 69 69 69 69 69 69 69 68 68 69 69 68 68 67 67 67 68 66 66 66 67 65 65 65 65 66 66 66 66 66 65 65 66 66 66 67 66 66 65 65 65
20 18 19 17 16 15 14 13 12 11 11 10 11 11 11 10 8 9 12 58 61 62 63 64 64 64 64 64 64 64 64 64 64 65 64 64 62 62 61 62 63 63 63 65 65 65 66 66 66 67 67 68 68 68 68 68 68 69 69 69 69 69 69 68 68 68 69 68 68 68 67 67 67 66 66 66 66 65 65 65 65 65 66 65 65 65 66 65 66 65 65 65 66 65 64 63 64
18 18 14 16 14 14 12 13 10 10 11 9 9 9 10 8 8 9 19 57 61 61 63 63 64 64 64 64 65 64 65 65 65 66 65 65 63 63 62 64 65 65 64 65 65 65 66 66 66 66 67 67 68 68 68 68 68 68 69 69 69 69 69 68 67 67 68 68 68 67 67 67 67 66 66 66 66 66 65 65 65 65 66 66 65 65 65 64 64 64 64 63 62 62 62 64 64
13 14 14 13 13 13 9 16 9 9 9 10 8 9 8 9 8 8 19 58 58 58 62 63 63 64 64 64 65 65 66 66 66 66 65 65 64 64 63 65 65 64 64 65 65 65 65 66 66 65 66 67 67 67 67 67 67 68 68 69 68 68 68 68 67 67 67 67 67 67 66 67 67 66 66 66 66 65 66 65 66 65 66 65 65 65 65 64 63 63 64 63 63 63 63 62 62
21 12 13 12 11 11 8 9 10 10 8 9 8 7 8 7 8 8 34 57 59 57 61 63 63 64 64 65 65 65 65 64 64 64 64 65 65 65 64 65 64 64 64 64 64 65 65 65 66 65 65 66 66 67 66 66 67 67 67 68 67 67 67 67 67 67 67 67 66 66 66 67 67 66 67 66 66 65 65 65 65 66 66 65 64 63 64 63 64 64 63 64 63 63 62 62 62
19 13 14 12 9 8 9 8 9 9 9 7 8 7 9 9 9 12 23 54 57 57 59 62 63 64 65 65 65 64 63 63 63 63 63 64 64 64 65 65 65 64 64 64 64 64 65 65 66 65 65 65 65 66 66 66 65 65 66 66 67 66 66 67 66 66 66 66 66 66 66 67 67 67 66 66 66 66 65 65 64 65 65 64 64 63 63 63 63 63 64 62 63 63 62 62 63
19 15 15 12 10 9 8 6 8 7 7 8 8 7 7 6 7 7 12 28 56 56 58 62 62 63 64 65 65 63 63 63 63 63 63 63 63 63 64 65 64 64 64 64 65 65 65 65 66 66 65 64 64 64 65 65 64 64 65 65 66 65 65 66 66 66 66 66 66 66 67 67 67 67 67 66 66 66 65 64 64 65 65 64 63 62 62 63 63 62 63 64 63 63 63 63 63
18 15 16 13 8 6 7 8 9 7 7 6 7 6 6 6 6 7 13 18 48 53 55 60 62 63 64 64 65 62 62 62 62 62 62 63 63 63 63 64 64 64 64 64 65 65 64 65 65 65 65 64 64 64 64 64 64 64 64 64 64 65 65 65 65 66 65 66 66 66 67 66 67 66 66 66 66 65 64 64 64 64 64 63 63 63 63 63 63 64 63 64 63 62 62 62 62
16 13 15 13 9 7 7 8 7 8 7 6 7 11 7 6 7 8 10 18 26 43 55 59 61 62 63 64 64 62 62 62 60 61 62 62 63 63 63 63 64 65 64 65 64 64 65 65 65 64 64 64 63 63 63 63 63 63 63 64 64 64 64 65 65 64 65 65 66 66 66 66 66 67 66 65 65 67 64 63 64 64 64 63 63 63 63 63 64 64 64 63 63 62 62 61 62
14 11 13 13 9 8 7 6 8 9 12 12 10 8 8 8 9 10 14 18 16 25 46 58 59 61 63 63 62 62 61 60 60 61 62 62 62 62 62 63 64 64 64 64 64 64 64 65 65 64 64 64 64 64 63 63 64 64 64 64 63 64 64 64 63 63 64 65 65 65 65 65 66 67 67 65 65 64 64 64 64 64 63 63 64 64 64 66 65 65 64 63 62 62 62 62 63
15 14 11 9 8 8 7 8 7 9 6 7 10 7 7 9 10 12 17 14 20 19 36 54 59 61 62 62 61 62 61 60 60 61 61 62 62 62 62 62 63 64 64 64 64 64 64 64 65 64 64 64 64 64 64 63 64 63 63 62 64 63 63 64 64 64 65 64 64 64 65 65 66 66 66 66 64 64 64 64 64 64 64 66 65 65 65 65 64 64 63 62 61 60 61 61 61
22 13 14 12 11 7 8 9 9 8 9 10 14 8 13 16 19 17 16 15 17 18 23 46 58 60 61 61 61 61 60 60 59 60 61 61 62 62 61 61 62 63 64 64 64 63 64 64 64 64 64 64 64 64 64 64 64 63 64 64 64 63 63 64 64 64 63 64 64 64 65 65 66 66 66 66 65 64 63 64 64 65 65 65 65 65 64 63 63 63 62 63 60 59 57 58 60
23 17 12 9 8 6 8 9 11 15 9 14 9 12 9 15 9 12 15 19 15 30 25 38 55 60 61 61 61 61 60 60 60 60 61 61 61 61 61 61 62 63 63 64 63 63 63 63 64 64 64 64 64 64 64 64 64 63 64 63 64 64 64 63 63 62 63 63 63 63 64 65 66 65 65 65 65 64 64 64 65 64 65 65 64 64 63 64 64 63 62 62 60 60 59 57 59
21 22 17 12 7 6 7 9 10 12 9 13 5 4 8 14 17 11 12 13 15 26 29 38 52 58 60 60 60 60 60 60 60 60 61 61 61 61 61 61 61 62 63 63 64 63 63 63 64 64 64 64 64 64 64 64 63 63 63 63 62 62 62 62 62 62 62 63 63 63 64 65 66 65 65 65 66 65 64 64 64 64 64 64 64 64 64 63 63 63 62 61 61 59 60 56 57
19 20 19 15 13 9 7 6 7 5 4 9 14 4 10 14 13 15 16 13 11 22 38 37 53 58 60 60 60 60 60 60 60 60 61 61 61 61 61 61 61 62 63 63 63 63 63 63 64 64 64 64 64 64 64 64 63 63 63 63 63 62 62 62 61 62 63 63 63 63 64 65 66 65 65 66 66 65 64 64 64 63 63 63 64 63 63 63 63 63 62 60 61 60 57 55 56
16 20 18 14 13 11 9 6 7 11 20 17 12 9 5 5 9 15 18 15 16 29 40 44 52 57 59 59 59 60 60 60 60 60 60 61 61 61 60 61 62 62 62 63 63 63 63 63 64 64 64 64 64 64 63 63 63 63 63 63 63 62 62 62 62 62 62 63 63 63 64 64 65 65 65 65 65 65 64 64 63 63 63 63 63 62 62 62 62 62 61 60 60 60 57 58 58
21 19 17 15 12 11 8 8 11 12 11 6 14 13 6 11 16 18 25 12 26 33 39 45 50 56 57 58 59 59 60 60 60 60 60 60 61 61 61 61 62 62 63 63 63 63 63 63 64 64 64 63 64 64 63 63 63 63 63 62 62 62 62 62 63 63 63 63 63 63 64 64 64 64 64 64 64 64 64 63 63 62 62 62 62 60 60 60 59 59 59 60 59 59 60 60 59
20 18 18 18 16 15 9 11 9 11 8 8 9 13 4 7 14 14 21 16 19 32 38 42 49 54 56 57 58 59 60 60 60 60 60 60 61 61 61 61 62 62 63 62 63 63 62 63 63 63 63 63 63 63 63 63 63 63 63 62 62 62 62 62 62 62 62 63 63 63 63 63 62 62 62 62 62 62 62 62 62 61 61 62 61 59 59 59 59 59 59 59 58 59 58 58 59
18 16 15 13 13 15 24 15 11 10 6 8 9 10 6 4 11 11 16 25 30 27 40 46 49 52 55 56 57 59 59 59 59 60 60 60 61 61 61 61 62 62 63 63 63 63 62 63 63 63 63 63 63 63 63 62 63 63 62 62 62 61 62 62 61 61 62 62 62 62 62 61 61 61 61 61 62 61 62 62 61 61 61 61 60 59 59 59 59 59 58 58 58 58 59 59 60
12 12 12 10 15 12 10 11 13 5 9 14 11 8 6 5 13 17 18 22 36 31 37 43 49 52 54 56 57 58 59 59 59 59 59 60 61 61 61 61 62 62 63 63 63 63 62 62 62 62 62 63 63 63 63 63 63 62 62 62 62 62 62 61 61 61 62 62 62 62 61 61 60 60 61 60 61 61 61 60 60 59 59 59 59 58 58 58 58 58 58 59 59 59 59 58 56
14 12 13 13 12 10 6 7 6 8 7 9 11 7 5 6 9 12 11 12 13 35 35 38 47 51 53 55 57 58 59 59 59 59 59 60 60 60 61 61 62 62 62 62 63 63 63 62 62 62 62 62 63 63 62 62 62 62 62 62 62 62 62 62 62 62 62 62 62 61 60 60 60 59 60 59 60 60 60 59 59 59 59 59 58 58 58 58 58 58 58 58 58 57 56 55 54
14 12 13 11 8 7 5 7 5 9 12 13 10 12 5 12 12 16 12 12 12 18 37 41 45 49 53 55 56 57 58 59 59 59 59 60 60 60 61 61 61 62 62 62 63 63 63 63 62 62 63 63 63 62 62 62 62 62 62 62 62 62 62 62 62 62 62 62 62 61 60 60 59 59 59 59 59 59 59 59 59 59 58 59 59 58 58 58 58 58 58 57 56 55 55 54 53
14 11 12 12 8 5 -0 6 5 5 8 9 11 5 7 4 8 15 13 15 22 24 35 45 49 51 52 53 55 57 58 58 59 59 59 59 60 60 61 61 61 62 62 62 63 63 63 62 62 62 63 63 63 62 62 61 61 62 62 62 62 62 62 62 62 62 62 62 61 60 60 59 59 59 58 59 59 59 59 58 58 58 57 57 57 57 57 57 58 58 57 56 55 54 53 52 51
16 10 10 11 9 17 6 12 11 11 5 5 9 8 13 9 18 26 35 37 41 45 49 51 51 52 53 54 55 57 57 58 59 59 59 59 60 60 61 61 61 62 62 62 63 63 63 62 62 63 63 63 63 62 62 62 62 62 62 61 61 62 62 61 61 61 61 62 61 60 59 59 59 58 58 58 59 58 58 58 57 57 57 57 57 57 57 57 57 57 56 55 54 53 52 51 50
16 9 10 11 15 17 9 8 19 11 8 4 10 10 11 16 11 15 39 41 47 50 50 51 51 53 53 54 54 56 57 58 58 59 59 59 60 60 61 61 61 62 62 62 63 63 63 63 62 63 63 62 62 62 62 62 62 61 61 61 61 61 61 61 61 61 61 61 60 59 59 58 58 58 58 58 58 58 58 57 56 56 56 56 57 57 58 58 57 56 55 54 53 52 52 50 50
13 13 13 13 16 17 12 5 9 5 4 8 11 6 6 5 12 26 32 32 45 49 50 50 51 53 53 53 54 55 57 58 58 59 59 59 60 60 61 61 62 62 62 62 63 64 63 63 63 63 63 62 62 62 62 62 61 61 61 60 61 61 61 61 61 60 60 60 59 59 58 58 57 58 58 58 57 57 58 58 56 56 56 57 57 57 58 58 56 55 54 53 53 52 51 50 50
13 14 13 10 9 8 15 12 1 -2 -4 -2 10 9 11 7 11 19 20 32 37 49 50 50 52 53 53 53 54 54 56 58 58 58 59 59 60 60 61 61 62 62 62 63 63 64 64 63 63 63 63 62 63 62 62 61 60 61 61 61 61 61 61 60 60 60 60 59 58 58 57 57 57 58 58 57 57 57 57 57 56 56 56 56 57 58 58 58 56 54 53 52 52 51 50 50 50
13 11 10 14 19 18 9 13 15 10 0 0 7 7 8 11 14 22 17 30 36 49 50 51 52 53 53 53 54 54 56 57 58 58 59 59 60 60 61 61 62 62 62 63 63 64 64 64 64 63 63 63 63 62 62 61 61 61 61 61 61 61 61 60 59 59 59 58 57 57 57 57 57 57 57 57 56 56 57 56 56 55 56 56 57 57 57 57 56 54 53 52 51 51 50 49 50
8 10 10 11 16 17 12 16 8 7 4 4 3 1 12 14 19 24 26 34 43 49 50 51 51 52 53 53 54 55 56 57 57 58 58 59 60 61 61 61 62 63 63 63 63 64 64 64 64 63 63 63 61 61 62 61 61 61 61 60 60 60 59 59 58 58 57 57 57 57 57 57 56 56 56 56 56 56 55 56 55 56 55 55 56 57 57 56 55 54 53 52 51 50 50 50 49
9 12 12 10 10 10 6 10 10 14 9 2 1 4 16 20 28 24 28 34 45 49 49 50 51 52 53 53 53 55 56 57 57 58 58 59 60 61 62 62 63 63 63 63 63 64 64 64 64 63 63 61 60 61 60 60 60 60 60 60 59 59 58 58 57 56 56 56 56 56 56 55 55 56 56 55 55 55 55 54 54 54 54 55 55 56 56 56 55 54 53 53 52 51 50 49 49